Location: Newark
(41.3300°N, 14.0200°E)
Time: 13:57:25
(UTC+00:00)

N. Korean satellite - Visible Passes

Search period start: 29 January 2020 00:00
Search period end: 08 February 2020 00:00
Orbit: 454 x 507 km, 97.2° (Epoch: 28 January)

Date Brightness Start Highest point End Pass type
(mag) Time Alt. Az. Time Alt. Az. Time Alt. Az.
29 Jan 9.4 04:03:59 10° NE 04:06:38 19° E 04:09:17 10° SE visible
29 Jan 7.6 05:36:57 10° NNW 05:40:00 26° WNW 05:43:03 10° SW visible
30 Jan 6.6 05:11:04 10° N 05:14:36 54° WNW 05:18:11 10° SSW visible
31 Jan 6.9 04:45:31 10° NNE 04:49:08 67° E 04:52:46 10° S visible
31 Jan 9.7 16:55:14 10° SW 16:57:41 18° W 17:00:10 10° NW visible
01 Feb 8.6 04:20:19 10° NNE 04:23:35 30° E 04:26:51 10° SSE visible
02 Feb 9.8 03:55:43 10° NE 03:57:56 15° E 04:00:10 10° SE visible
02 Feb 7.3 05:28:06 10° N 05:31:23 32° WNW 05:34:42 10° SW visible
03 Feb 6.5 05:02:20 10° N 05:05:59 71° WNW 05:09:38 10° SSW visible
03 Feb 10.2 17:13:28 10° WSW 17:14:39 11° W 17:15:49 10° WNW visible
04 Feb 7.5 04:36:53 10° NNE 04:40:29 51° E 04:44:05 10° S visible
05 Feb 9.0 04:11:49 10° NE 04:14:53 24° E 04:17:57 10° SSE visible
06 Feb 10.1 03:47:38 10° ENE 03:49:12 12° E 03:50:46 10° ESE visible
06 Feb 7.0 05:19:17 10° N 05:22:46 42° WNW 05:26:16 10° SW visible
07 Feb 6.6 04:53:37 10° NNE 04:57:19 88° ESE 05:01:02 10° SSW visible
07 Feb 9.9 17:03:51 10° SW 17:05:51 15° W 17:07:54 10° WNW visible
